LTAC Weather Reports


Display with metric or nautical units.
time (UTC)temp
F
wind
direction
speed
MPH
gust
MPH
rain 1hr
in
rain 24hr
in
rain mn
in
humidity
%
barometer
mb
20260504050003 37 360 6.0 0.0 0.00 0.00 0.00 93 1005.0
20260504044504 37 10 5.0 0.0 0.00 0.00 0.00 93 1004.0
20260504043004 37 10 5.0 0.0 0.00 0.00 0.00 93 1004.0
20260504041504 37 360 6.0 0.0 0.00 0.00 0.00 93 1004.0
20260504040004 37 360 6.0 0.0 0.00 0.00 0.00 93 1004.0
20260504034504 39 10 8.0 0.0 0.00 0.00 0.00 86 1004.0
20260504033004 39 10 8.0 0.0 0.00 0.00 0.00 86 1004.0
20260504031503 39 20 8.0 0.0 0.00 0.00 0.00 86 1004.0
20260504021504 39 30 9.0 0.0 0.00 0.00 0.00 86 1003.0
20260504014504 39 30 9.0 0.0 0.00 0.00 0.00 86 1003.0
20260504013005 39 30 9.0 0.0 0.00 0.00 0.00 86 1003.0
20260504011503 39 50 1.0 0.0 0.00 0.00 0.00 93 1004.0
20260504010005 39 50 1.0 0.0 0.00 0.00 0.00 93 1004.0
20260504004504 41 70 12.0 0.0 0.00 0.00 0.00 86 1004.0
20260504003005 41 70 12.0 0.0 0.00 0.00 0.00 86 1004.0
20260504000005 41 70 8.0 0.0 0.00 0.00 0.00 80 1004.0
20260503230004 41 80 14.0 0.0 0.00 0.00 0.00 80 1003.0
20260503221503 43 90 15.0 0.0 0.00 0.00 0.00 75 1003.0
20260503214503 41 70 13.0 0.0 0.00 0.00 0.00 86 1003.0
20260503211504 43 90 16.0 0.0 0.00 0.00 0.00 81 1003.0
20260503210005 41 90 12.0 0.0 0.00 0.00 0.00 80 1003.0
20260503204505 43 90 16.0 0.0 0.00 0.00 0.00 81 1003.0
20260503203004 43 90 16.0 0.0 0.00 0.00 0.00 81 1003.0
20260503201504 43 90 1.0 0.0 0.00 0.00 0.00 81 1004.0
20260503200004 43 90 1.0 0.0 0.00 0.00 0.00 81 1004.0
20260503194503 43 80 16.0 0.0 0.00 0.00 0.00 81 1003.0
20260503193004 43 80 16.0 0.0 0.00 0.00 0.00 81 1003.0
20260503191504 43 80 17.0 0.0 0.00 0.00 0.00 87 1003.0
20260503183003 45 80 2.0 0.0 0.00 0.00 0.00 75 1003.0
20260503180004 45 80 16.0 0.0 0.00 0.00 0.00 81 1003.0
20260503174503 45 70 2.0 0.0 0.00 0.00 0.00 81 1003.0
20260503173003 45 70 2.0 0.0 0.00 0.00 0.00 81 1003.0
20260503171503 45 70 16.0 0.0 0.00 0.00 0.00 81 1003.0